sat.trackr.live / text

‹ back to catalog

STARLINK-35806

NORAD 66363 · 2025-254R

PAYLOAD ACTIVE UNKNOWN

§ Identity

Operator
Country
US
Launch date
2025-11-06
Launch site
AFWTR
Launch vehicle
Mass (kg)
RCS (m²)

Purposes: comms

External: N2YO · Heavens-Above · Gunter

§ Orbital elements

Epoch: 2026-05-24T17:35:27.750912Z

Period
94.11 min
Inclination
53.1590°
Eccentricity
0.0001166
Mean motion
15.30198304 rev/d
Perigee alt
474.4 km
Apogee alt
476.0 km
Semi-major
6,853.4 km
B*
7.1915e-4
RAAN
239.5656°
Arg perigee
75.3551°
Mean anomaly
284.7579°
Rev number
3,061

§ Raw data

STARLINK-358061 66363U 25254R   26144.73296008  .00020999  00000+0  71915-3 0  99982 66363  53.1590 239.5656 0001166  75.3551 284.7579 15.30198304 30611

JSON: /api/v1/satellites/66363 · /tle

For live sub-satellite position, see the globe view (requires WebGL).

§ Visibility from observer

Set your observer location to see the next 7 days of passes ≥ 10°. The values pass through the URL so the page stays shareable.

No JS? Fill the form by hand. The geolocation button needs JavaScript.